Weather History for Cincinnati, OH

Change the Weather History Date:

Friday, October 11, 2013

  Actual Average Record
Temperature  
Mean Temperature 60 °F -  
Max Temperature 78 °F 66 °F 88 °F (2010)
Min Temperature 44 °F 46 °F 25 °F (1964)
Degree Days  
Heating Degree Days 4    
Growing Degree Days 10 (Base 50)    
Moisture  
Dew Point 49 °F    
Average Humidity 84    
Maximum Humidity 100    
Minimum Humidity 41    
Precipitation  
Precipitation 0.01 in - - ()
Sea Level Pressure  
Sea Level Pressure 30.08 in    
Wind  
Wind Speed 0 mph (SW)    
Max Wind Speed 4 mph    
Max Gust Speed -    
Visibility 7 miles    
Events Fog    
Averages and records for this station are not official NWS values.
T = Trace of Precipitation, MM = Missing Value Source: NWS Daily Summary

Daily Weather History Graph

Daily Weather History Graph

Search for Another Location

Airport:

Trip Planner

Search our weather history database for the weather conditions in past years. The results will help you decide how hot, cold, wet, or windy it might be!

Date:

Astronomy

Oct. 11, 2013 Rise Set
Actual Time 7:43 AM EDT 7:04 PM EDT
Civil Twilight 7:16 AM EDT 7:31 PM EDT
Nautical Twilight 6:45 AM EDT 8:02 PM EDT
Astronomical Twilight 6:14 AM EDT 8:33 PM EDT
Moon 2:23 PM EDT (10/11) No Moon Set
Length of Visible Light 12h 14m
Length of Day
11h 20m
Waxing Crescent, 47% of the Moon is Illuminated
Oct 11
Waxing Crescent
Oct 11
First Quarter
Oct 18
Full
Oct 26
Last Quarter
Nov 3
New

Hourly Weather History & Observations

Time (EDT) Temp. Dew Point Humidity Pressure Visibility Wind Dir Wind Speed Gust Speed Precip Events Conditions
12:01 AM 48.2 °F 48.2 °F 100% 30.10 in 1.8 mi Calm Calm - N/A   Clear
12:09 AM 50.0 °F 50.0 °F 100% 30.10 in 3.0 mi Calm Calm - N/A   Clear
12:53 AM 50.0 °F 48.9 °F 96% 30.09 in 9.0 mi Calm Calm - N/A   Clear
1:53 AM 48.0 °F 48.0 °F 100% 30.09 in 7.0 mi Calm Calm - N/A   Clear
2:53 AM 46.9 °F 46.0 °F 97% 30.09 in 4.0 mi Calm Calm - N/A   Clear
3:41 AM 46.4 °F 46.4 °F 100% 30.09 in 1.8 mi Calm Calm - N/A   Clear
3:53 AM 46.9 °F 46.0 °F 97% 30.08 in 3.0 mi Calm Calm - N/A   Clear
4:53 AM 46.0 °F 45.0 °F 96% 30.09 in 7.0 mi Calm Calm - 0.01 in   Clear
4:59 AM 46.4 °F 44.6 °F 93% 30.09 in 1.8 mi Calm Calm - N/A   Clear
5:08 AM 46.4 °F 44.6 °F 93% 30.09 in 3.0 mi Calm Calm - N/A   Clear
5:14 AM 46.4 °F 44.6 °F 93% 30.09 in 1.8 mi Calm Calm - N/A   Clear
5:23 AM 46.4 °F 46.4 °F 100% 30.09 in 4.0 mi Calm Calm - N/A   Clear
5:53 AM 45.0 °F 45.0 °F 100% 30.09 in 5.0 mi Calm Calm - N/A   Clear
6:29 AM 46.4 °F 46.4 °F 100% 30.10 in 2.0 mi Calm Calm - N/A   Clear
6:37 AM 46.4 °F 44.6 °F 93% 30.10 in 5.0 mi Calm Calm - N/A   Clear
6:53 AM 44.1 °F 44.1 °F 100% 30.11 in 6.0 mi Calm Calm - N/A Fog Patches of Fog
7:53 AM 45.0 °F 45.0 °F 100% 30.12 in 10.0 mi Calm Calm - N/A Fog Shallow Fog
8:53 AM 48.9 °F 46.9 °F 93% 30.13 in 9.0 mi Calm Calm - N/A   Clear
9:53 AM 55.9 °F 51.1 °F 84% 30.14 in 10.0 mi Calm Calm - N/A   Clear
10:53 AM 61.0 °F 52.0 °F 72% 30.13 in 10.0 mi Calm Calm - N/A   Clear
11:53 AM 68.0 °F 52.0 °F 56% 30.11 in 10.0 mi Calm Calm - N/A   Clear
12:53 PM 73.0 °F 50.0 °F 44% 30.09 in 10.0 mi Calm Calm - N/A   Clear
1:53 PM 73.9 °F 48.9 °F 41% 30.06 in 10.0 mi Calm Calm - N/A   Clear
2:53 PM 75.0 °F 51.1 °F 43% 30.05 in 10.0 mi SW 3.5 mph - N/A   Clear
3:53 PM 75.9 °F 51.1 °F 42% 30.03 in 10.0 mi Calm Calm - N/A   Clear
4:53 PM 77.0 °F 53.1 °F 43% 30.03 in 10.0 mi Calm Calm - N/A   Clear
5:53 PM 75.9 °F 54.0 °F 46% 30.03 in 10.0 mi Calm Calm - N/A   Clear
6:53 PM 68.0 °F 59.0 °F 73% 30.04 in 10.0 mi Calm Calm - N/A   Clear
7:53 PM 61.0 °F 57.0 °F 87% 30.04 in 10.0 mi Calm Calm - N/A   Clear
8:53 PM 57.0 °F 55.0 °F 93% 30.05 in 10.0 mi Calm Calm - N/A   Clear
9:53 PM 55.0 °F 54.0 °F 96% 30.05 in 10.0 mi Calm Calm - N/A   Clear
10:53 PM 55.0 °F 54.0 °F 96% 30.06 in 10.0 mi Calm Calm - N/A   Clear
11:53 PM 54.0 °F 53.1 °F 97% 30.05 in 5.0 mi Calm Calm - N/A   Clear